Wind_Speed
60 60 59 58 58 57 57 56 56 55 54 53 53 52 53 54 55 57 59 60 61 60 58 57 57 56 56 57 57 58 58 59 59 58 58 57 58 61 64 66 69 71 72 71 70 69 68 68 67 66 65 65 64 64 63 63 62 60 59 59 59 58 58 58 56 55 53 47 40 36 43 51 47 48 47 47 49 46 44 45 46 46 46 47 45 44 45 45
64 63 62 61 61 60 60 60 59 59 58 57 56 54 53 53 54 56 57 59 61 62 61 60 58 57 57 57 57 58 58 58 58 59 59 57 57 59 60 62 65 69 72 72 72 71 70 69 68 67 67 66 66 65 64 64 63 62 61 60 60 60 60 60 55 53 50 44 39 38 48 53 49 49 48 47 49 46 43 45 46 45 45 46 46 46 45 45
68 67 67 66 65 64 64 63 63 62 61 61 60 58 57 55 54 55 56 58 60 62 63 62 61 59 58 57 57 58 58 58 58 59 59 57 57 57 57 59 61 65 69 72 73 72 71 70 69 69 68 67 67 66 65 65 64 64 63 62 62 62 63 59 52 50 49 46 42 44 54 56 50 48 48 49 50 47 45 46 46 45 45 44 45 47 45 45
70 70 70 70 69 69 68 67 66 65 65 64 63 62 60 58 57 56 56 57 59 61 63 64 63 62 61 59 58 58 58 58 58 57 58 58 57 57 57 58 59 61 65 68 71 73 72 71 71 70 70 68 68 67 66 66 66 65 64 64 64 64 63 56 51 51 51 49 47 52 59 56 49 48 50 51 50 49 48 46 45 44 43 42 44 46 44 44
66 67 69 70 71 71 71 71 70 69 68 67 66 65 63 62 61 59 58 58 59 60 62 64 64 64 63 61 60 58 58 59 55 55 58 57 57 58 59 58 58 59 61 63 67 71 72 72 72 72 71 70 69 68 68 68 68 66 65 66 67 64 60 56 54 53 51 52 53 56 58 52 48 50 53 53 52 52 49 45 44 44 44 43 44 46 44 42
63 63 64 65 66 68 70 71 72 73 72 71 70 68 67 66 64 63 61 60 60 60 61 63 64 66 65 64 61 59 59 57 53 57 60 57 57 59 60 59 58 58 58 60 63 67 70 73 73 73 72 71 70 69 69 70 69 67 67 69 66 62 61 59 56 53 53 57 57 56 55 51 52 55 56 56 54 52 50 46 46 47 45 44 45 47 46 44
62 63 63 62 62 63 64 65 67 70 72 73 73 72 71 69 68 66 64 63 62 61 61 62 64 66 67 66 64 62 60 56 55 60 60 56 57 59 60 60 59 58 57 58 59 62 66 70 73 74 73 72 71 71 71 71 70 69 69 69 66 63 63 60 55 54 57 59 56 55 55 55 58 59 58 57 54 50 46 44 47 48 46 45 47 48 49 49
59 61 63 64 63 62 61 61 62 63 65 68 70 72 72 72 71 69 68 67 65 63 62 62 64 65 67 67 66 63 61 58 57 59 59 55 57 58 60 59 59 58 58 58 58 59 62 65 69 72 74 74 73 72 72 71 70 70 70 69 66 64 64 60 56 56 60 61 57 57 58 59 60 58 57 56 55 51 45 46 48 46 45 46 47 48 49 47
55 57 60 62 63 63 62 62 61 60 60 61 64 67 69 71 71 71 70 69 68 66 64 63 64 65 67 67 67 65 63 61 55 57 60 58 57 59 60 59 59 59 59 58 57 57 58 60 64 68 72 74 74 73 73 71 71 71 70 69 67 65 64 61 58 59 62 62 59 60 60 60 60 58 58 58 57 51 45 49 50 45 46 46 46 47 45 43
52 53 55 58 61 63 63 63 62 61 61 60 60 61 64 66 68 70 71 71 70 68 66 65 65 66 67 67 67 66 66 62 54 58 63 58 57 59 60 59 59 59 59 59 58 57 58 59 61 64 67 70 72 73 73 71 71 71 70 68 67 65 65 62 60 61 64 63 60 61 61 61 60 59 61 59 56 51 44 48 48 44 45 45 47 46 42 41
51 51 52 54 57 60 61 62 62 63 62 62 61 61 61 62 64 66 69 71 71 71 69 67 66 66 67 66 66 67 67 63 57 60 63 57 57 60 60 60 59 59 59 59 58 58 58 58 59 59 61 64 67 70 72 72 72 71 69 69 68 66 66 64 62 64 65 64 62 64 63 62 61 63 63 59 57 54 48 48 49 47 46 43 43 41 36 37
52 51 51 53 54 56 59 60 61 62 63 63 63 63 63 62 63 64 66 69 70 72 70 69 68 66 67 66 65 68 68 66 61 61 63 59 58 59 61 61 59 59 59 59 59 59 58 57 57 57 58 59 61 65 68 70 71 71 71 70 69 68 67 65 65 66 66 66 66 66 65 63 63 65 65 60 58 58 53 51 52 50 49 46 42 38 37 40
53 52 52 52 53 55 56 58 60 61 62 63 64 64 64 64 65 65 66 68 70 71 71 69 68 67 67 64 66 70 69 68 65 63 63 60 58 59 61 61 60 59 58 58 59 58 57 57 56 56 57 57 58 61 62 66 70 71 72 71 70 69 67 65 66 67 67 67 67 67 66 64 65 68 67 60 59 61 59 55 54 52 50 47 44 41 43 44
54 53 52 52 53 54 55 57 59 61 62 63 64 64 65 65 66 67 68 69 70 71 71 70 69 68 66 65 70 71 68 69 67 65 63 61 60 60 60 61 60 59 59 59 58 58 58 57 57 57 56 56 57 57 57 62 66 68 70 71 71 70 68 67 67 67 67 68 66 65 67 65 67 70 68 60 60 65 64 58 55 53 51 49 46 43 42 42
56 55 54 53 53 54 55 57 58 60 61 62 63 64 64 65 66 68 70 71 72 71 71 70 69 68 66 67 72 70 67 69 69 67 65 62 61 60 61 62 61 60 59 59 58 58 57 56 57 57 56 57 56 54 54 57 60 62 65 68 69 69 70 69 68 67 68 68 64 65 68 67 67 70 67 62 62 67 66 59 55 52 49 47 46 44 42 42
57 56 55 54 53 54 54 56 58 60 61 62 63 64 64 65 66 68 70 72 73 72 71 70 69 68 66 69 72 69 66 68 70 71 67 63 62 61 62 61 61 61 60 59 58 57 57 57 58 56 55 56 53 52 54 55 56 57 58 62 65 67 70 70 68 68 69 67 63 65 69 68 68 69 66 62 63 66 65 60 56 54 52 47 44 43 44 43
59 58 57 56 54 54 54 55 58 60 61 62 63 64 65 66 67 68 70 72 73 73 71 70 69 68 67 71 72 69 68 69 72 73 69 65 64 63 62 61 62 62 60 60 58 57 58 58 57 55 54 54 52 52 54 53 52 53 53 56 59 62 67 68 67 68 70 66 63 66 71 70 69 69 65 62 63 65 64 61 56 54 52 48 43 42 44 43
60 60 59 57 56 55 54 55 57 59 61 62 63 64 65 66 67 67 69 71 73 74 72 69 69 69 69 72 72 72 72 72 73 73 70 68 66 64 62 62 63 62 61 60 58 59 59 58 56 54 53 52 51 51 52 52 52 52 52 53 55 57 62 64 63 66 70 67 65 69 72 71 71 68 64 62 62 63 64 60 55 52 50 49 47 45 44 40
62 61 60 59 57 56 55 55 56 58 60 61 62 64 65 66 66 67 69 70 71 73 73 71 70 71 72 72 73 75 73 71 71 71 71 70 68 65 63 64 63 61 61 59 59 60 59 57 55 52 52 51 51 51 52 53 53 52 52 53 53 54 58 59 56 60 68 68 67 71 73 72 71 68 63 61 62 64 64 60 56 54 53 52 49 48 45 39
63 63 61 60 58 57 56 55 56 58 59 60 61 63 65 65 65 66 66 67 69 72 74 74 71 72 73 72 74 76 73 71 70 69 71 72 70 67 65 65 63 61 60 59 59 60 59 57 54 52 52 52 53 53 53 54 53 53 53 53 52 52 54 55 51 53 63 66 67 72 73 72 73 68 63 60 61 66 65 60 58 56 55 53 50 48 44 40
64 63 62 61 60 58 56 55 56 57 58 59 60 62 63 63 62 62 63 65 68 72 75 74 71 72 74 73 74 75 72 69 69 71 73 73 73 70 67 66 63 61 60 60 61 60 58 55 53 54 54 54 54 54 54 54 53 53 52 52 52 51 51 53 50 49 56 61 64 70 72 72 73 69 63 60 61 66 65 61 59 56 55 53 50 49 46 42
64 64 64 62 61 59 57 55 55 56 57 58 59 60 60 59 59 60 62 65 68 72 75 74 72 75 76 73 72 71 69 69 71 72 72 72 73 71 68 66 64 62 63 63 62 59 57 55 55 56 56 56 55 55 55 54 53 52 51 51 51 50 49 52 52 48 50 54 58 65 67 69 72 68 64 62 61 65 65 62 59 56 55 51 50 51 46 43
65 65 65 63 61 59 57 55 55 55 56 56 57 58 56 56 58 59 60 63 67 70 73 73 74 78 77 72 70 69 71 73 74 73 71 71 74 73 70 68 66 65 65 64 62 59 57 56 57 58 58 57 56 55 55 55 54 51 50 50 50 51 49 51 54 48 45 49 55 58 60 65 66 60 60 62 61 63 65 63 58 53 52 51 51 51 45 44
67 66 65 64 62 60 57 55 54 54 54 55 56 55 53 54 57 57 58 61 65 68 71 72 75 79 76 72 71 72 75 77 75 74 71 71 74 75 73 70 68 67 66 65 63 60 59 59 61 60 59 58 57 57 56 55 53 51 51 50 51 52 50 52 55 47 43 48 54 55 55 60 58 50 52 58 60 64 65 64 59 52 49 48 49 48 45 45
68 67 66 65 62 60 58 55 54 53 53 54 53 52 51 53 54 55 57 60 63 66 70 71 75 79 76 73 73 74 75 75 74 72 69 71 74 75 74 72 71 68 67 67 65 63 61 62 62 61 60 59 58 57 57 56 53 51 51 51 53 53 50 54 54 46 45 48 50 51 53 56 52 46 48 52 56 62 64 63 58 53 49 48 47 46 45 47
68 67 67 65 63 60 57 55 53 52 52 52 51 49 49 51 52 54 57 59 61 64 67 69 74 78 77 73 73 75 74 72 72 71 69 71 73 75 75 74 72 70 68 68 67 65 63 63 63 62 61 60 58 57 57 56 53 51 52 52 54 53 51 56 52 45 46 46 49 52 52 53 50 46 49 48 51 57 58 58 55 52 51 50 51 50 47 48
69 68 67 66 63 60 57 55 53 51 50 49 48 47 48 49 51 53 56 57 59 63 65 67 71 76 77 75 75 75 71 70 73 72 69 71 72 73 75 74 73 71 69 69 67 64 64 64 63 62 61 60 59 57 57 56 53 51 53 53 54 52 52 57 52 45 46 46 50 52 50 51 49 48 50 48 50 53 52 52 52 49 48 48 49 50 50 51
70 69 68 66 63 59 57 55 53 50 47 46 47 48 47 48 49 52 54 55 58 61 62 64 68 73 76 75 74 73 71 73 76 73 70 71 72 72 74 75 74 73 71 70 66 65 65 65 64 63 62 60 59 58 58 57 53 53 55 54 53 53 54 56 52 48 47 45 48 50 49 50 49 48 50 47 49 50 48 49 49 45 44 47 47 48 50 52
70 69 68 66 63 59 57 55 52 48 46 47 48 47 46 46 48 50 53 53 57 59 59 60 64 70 74 74 73 74 73 74 75 73 71 72 72 72 73 74 76 76 74 71 68 68 67 65 66 65 63 61 60 61 59 56 54 55 56 54 54 55 54 55 54 51 47 43 46 50 49 49 50 49 49 46 46 47 46 48 46 41 41 46 49 49 51 53
68 69 68 66 62 59 58 55 50 47 47 47 47 45 44 45 46 48 50 52 56 57 57 59 63 68 72 71 73 75 74 73 73 72 71 72 73 73 72 74 77 79 77 73 71 70 67 67 67 64 62 63 63 62 60 56 56 58 56 55 55 55 54 55 54 52 46 43 45 49 48 48 49 49 46 45 46 46 46 45 41 39 39 42 45 48 53 55
66 68 67 65 62 60 58 55 50 47 46 45 45 43 42 43 45 46 49 54 56 55 55 59 63 66 67 69 73 75 74 73 74 71 70 71 73 72 72 73 76 78 77 74 72 71 69 68 66 63 63 65 63 61 60 58 58 60 58 56 56 55 55 54 53 51 44 41 44 48 48 46 46 47 45 43 45 46 44 41 39 39 40 41 44 49 54 55
63 65 65 64 62 61 58 54 50 48 46 45 44 43 42 42 43 45 50 54 53 51 54 59 62 63 65 68 73 75 73 72 72 69 69 71 71 69 68 69 71 75 75 74 73 72 70 67 66 66 65 64 62 61 62 60 59 61 60 58 58 56 55 53 52 49 42 41 44 47 48 46 45 48 44 40 44 44 38 36 38 40 43 46 48 53 58 59
58 61 62 63 62 60 57 53 51 48 46 44 43 41 41 41 42 46 50 52 50 50 54 58 60 62 64 68 73 73 71 71 70 68 69 72 71 68 68 67 67 70 73 75 75 74 72 68 68 68 65 62 63 63 63 61 61 62 60 59 58 55 53 51 51 49 43 43 45 47 51 50 46 46 43 39 41 39 32 33 38 40 41 45 48 53 59 63
53 57 60 61 60 59 57 53 51 47 44 43 41 40 39 40 44 47 48 49 49 50 54 57 59 61 64 67 71 70 68 69 69 68 70 71 69 67 67 66 65 66 70 76 78 76 74 71 69 67 63 61 64 66 64 61 63 63 61 61 58 53 52 52 52 50 47 47 47 50 54 50 44 44 42 40 39 34 31 35 41 43 42 42 46 50 55 59
49 54 57 59 59 58 56 53 50 46 44 42 40 39 40 42 45 45 45 47 47 49 53 57 59 61 63 66 68 68 68 68 68 67 68 68 66 64 64 64 63 64 67 72 76 77 75 73 71 69 66 64 65 67 65 64 64 64 63 63 58 53 53 54 53 52 52 51 50 52 54 48 43 43 40 40 38 34 35 38 42 47 46 43 45 48 51 53
46 51 55 56 57 57 55 52 49 46 43 41 40 41 42 44 45 45 46 47 48 49 53 56 58 60 63 65 66 66 67 68 66 64 65 65 64 63 63 63 62 62 64 67 71 75 76 75 75 73 70 68 67 67 67 66 66 65 64 62 57 55 57 57 55 55 55 53 50 52 52 47 44 43 40 39 38 37 38 39 40 45 45 43 44 47 49 51
44 49 52 54 55 54 53 51 48 45 42 41 42 43 43 43 43 43 44 45 47 49 52 55 57 59 61 63 64 65 67 66 63 61 63 64 63 61 61 61 61 61 62 64 66 71 75 77 78 76 72 70 68 70 72 70 68 67 65 62 60 61 61 59 57 57 56 53 51 52 51 48 47 45 42 40 39 39 41 42 42 43 44 44 45 47 48 50
43 46 49 51 52 52 52 50 48 45 43 44 44 42 41 41 42 42 44 45 46 48 52 55 57 58 60 62 63 64 65 63 60 59 62 63 61 60 59 59 59 59 61 63 64 68 72 77 80 79 75 72 71 73 75 73 68 66 65 65 65 64 62 60 59 58 56 53 53 54 53 50 49 47 44 44 44 43 43 43 44 45 46 46 47 48 49 51
40 43 46 48 49 50 50 49 47 45 44 44 42 41 42 42 42 43 44 45 46 49 52 54 57 58 60 62 63 63 63 61 58 58 61 61 59 59 58 59 59 58 59 62 64 66 69 74 78 79 78 77 76 76 76 73 69 68 69 69 68 65 62 62 61 59 57 56 56 56 54 52 50 47 46 47 47 46 47 46 46 47 47 48 48 49 50 51
36 40 44 46 47 48 49 48 46 45 45 44 43 42 43 43 43 43 43 44 46 48 50 54 57 59 60 62 63 63 62 60 57 58 60 61 60 59 58 58 58 57 58 60 62 64 66 70 75 78 79 79 77 76 75 73 71 71 71 70 68 65 65 65 64 61 59 59 59 57 55 53 51 48 48 49 48 47 49 49 48 49 48 47 48 49 51 53
35 39 42 44 47 48 48 47 46 46 46 44 43 42 42 41 41 40 41 43 45 47 50 53 56 59 60 61 61 61 61 59 57 58 59 60 60 59 59 57 56 55 56 57 59 61 63 67 72 75 76 75 73 73 74 74 73 72 71 71 69 67 67 67 65 63 62 61 59 57 57 55 53 49 47 48 49 49 51 51 50 50 49 49 50 51 53 53
36 38 41 44 47 48 48 48 48 47 45 43 42 41 41 40 39 39 41 43 45 47 51 53 56 59 60 60 60 60 59 57 56 58 60 61 60 60 58 56 54 53 52 53 54 56 60 65 68 70 69 70 71 72 74 75 74 73 73 73 72 70 69 68 67 65 62 60 58 58 59 58 55 51 45 43 47 49 50 51 51 51 50 50 52 53 53 53
37 40 43 46 47 48 49 49 48 46 45 43 42 41 40 39 38 39 41 44 47 50 52 55 58 60 60 60 60 60 58 57 57 58 60 60 59 58 57 55 54 52 51 52 53 54 57 59 60 61 62 65 68 72 74 75 76 76 75 73 72 71 70 70 68 65 61 60 60 61 62 58 53 51 45 40 44 49 50 50 51 51 50 50 51 52 53 53
37 39 42 45 46 47 48 48 47 45 43 41 40 39 39 38 37 39 42 45 47 49 51 54 57 58 59 59 58 58 58 57 57 58 58 58 57 56 55 54 54 53 52 54 54 54 54 54 54 55 56 59 62 65 68 70 71 71 68 66 67 66 66 66 64 63 63 62 62 63 64 60 54 51 47 45 48 52 51 48 49 50 50 49 49 51 52 53
35 38 41 44 46 48 48 47 45 42 41 40 39 39 38 37 37 38 40 42 44 47 50 53 55 57 58 58 58 57 56 55 55 56 57 57 56 55 55 54 53 53 54 56 56 55 56 55 54 54 54 55 56 57 58 59 61 62 60 60 61 61 61 61 61 62 61 60 62 64 64 60 54 50 48 49 52 55 53 50 48 48 50 51 50 51 52 52
35 39 42 44 45 46 46 45 43 41 40 39 38 37 36 36 36 37 38 40 43 46 48 51 53 54 56 56 57 57 56 55 56 57 56 55 54 54 54 54 53 54 56 56 56 56 56 56 55 55 55 55 55 56 57 59 60 60 60 60 60 59 60 60 60 59 57 58 61 63 60 56 53 51 51 52 52 53 55 54 50 48 49 50 50 50 50 50
37 39 42 43 43 43 42 42 41 40 39 38 37 36 36 36 36 37 38 39 41 43 45 47 50 52 54 55 56 56 56 56 57 56 55 54 54 55 55 55 55 55 55 55 54 54 55 55 54 54 55 55 55 56 57 58 59 59 60 59 58 59 61 60 57 55 56 60 63 61 57 54 53 54 56 56 55 54 54 54 52 49 48 48 49 49 49 49
37 38 39 40 41 41 41 40 39 39 38 38 37 37 37 37 37 36 37 38 40 42 45 48 50 53 54 55 56 57 57 57 57 56 54 54 55 55 55 55 54 54 54 54 54 55 55 55 54 54 54 54 54 55 55 56 57 57 58 58 57 60 62 59 56 56 60 65 64 60 57 56 56 56 56 57 58 57 55 53 52 51 49 48 48 49 50 50
34 36 37 38 38 38 38 38 38 38 37 37 37 38 38 37 37 37 38 39 41 43 45 47 49 51 53 55 56 56 57 58 57 56 55 54 55 55 56 55 55 55 56 56 55 55 56 55 54 54 54 54 54 54 53 54 55 55 56 56 56 59 61 61 60 62 66 69 64 59 57 57 56 57 58 58 58 58 56 54 53 52 50 50 50 50 51 51
30 33 36 38 38 37 37 37 38 38 38 37 37 37 36 36 37 37 38 39 39 41 43 45 46 48 50 51 53 54 55 56 56 55 55 56 56 57 57 57 56 56 56 56 56 56 56 56 55 54 55 55 54 53 52 52 53 54 55 56 56 58 62 65 66 68 70 69 63 59 58 58 56 56 58 58 58 58 56 55 55 54 53 53 53 52 52 51
29 31 34 37 38 38 38 38 38 38 37 36 35 34 34 34 34 35 35 36 38 39 40 41 42 44 45 47 48 50 51 52 53 53 54 55 56 57 57 56 56 55 55 56 56 56 56 55 54 55 55 54 52 52 52 52 52 53 56 58 59 62 65 67 67 67 67 64 60 58 59 58 58 58 58 57 57 56 53 52 54 55 55 55 55 55 55 53
29 31 33 35 38 39 38 38 37 36 35 34 33 33 32 31 31 32 33 34 35 37 38 39 40 42 43 44 45 46 47 49 50 50 51 53 54 55 56 55 54 53 54 55 56 56 55 54 54 55 55 52 51 51 51 51 50 51 53 55 58 63 65 64 63 62 62 61 59 59 59 60 60 60 59 55 52 51 49 48 51 54 54 54 55 56 57 56
Wind_Direction
264 264 263 262 261 260 259 258 258 257 256 255 253 252 251 251 251 250 250 250 248 247 246 247 248 247 246 244 242 239 237 236 235 235 236 235 235 235 235 234 234 233 233 233 233 233 234 234 235 235 235 235 236 236 237 238 238 238 239 239 240 240 240 241 240 242 242 242 242 242 246 247 244 245 245 245 247 246 246 248 248 248 248 249 250 252 256 257
264 263 263 262 261 259 258 258 258 258 258 257 256 254 252 251 250 250 249 249 249 248 246 245 246 247 246 245 244 242 239 237 235 235 235 234 234 235 235 234 234 234 233 233 233 233 233 234 234 235 235 235 235 236 236 238 238 238 238 238 239 239 240 240 240 242 244 243 241 241 244 245 243 244 246 246 248 247 246 248 248 249 249 249 250 252 255 258
263 263 262 262 261 259 258 257 257 256 257 257 257 256 254 252 251 250 249 249 248 248 247 245 244 245 246 245 245 244 241 239 236 235 234 233 234 235 235 234 234 234 233 233 233 232 233 233 234 234 234 235 235 235 236 237 237 238 238 238 239 239 240 240 240 243 245 242 238 238 243 244 243 245 247 247 248 247 245 247 248 248 249 249 250 253 256 259
263 263 262 261 260 260 258 257 256 255 255 255 255 255 255 254 253 251 250 249 248 247 247 245 244 243 244 245 245 244 243 241 238 236 236 234 234 235 234 234 233 233 233 233 233 232 232 233 233 234 234 234 235 235 236 237 237 237 238 238 239 239 240 240 240 242 243 242 238 239 243 244 245 247 248 247 248 247 245 246 247 248 250 250 250 252 257 260
263 263 262 261 260 259 259 257 256 255 254 254 253 253 253 253 253 252 251 250 249 247 246 245 244 243 242 243 244 244 243 242 239 239 239 235 234 235 234 233 233 233 233 233 233 233 232 232 233 233 234 234 234 235 235 236 237 237 238 238 239 239 240 240 239 240 242 242 240 240 244 246 247 248 248 247 246 247 245 245 248 249 249 250 250 252 254 257
263 262 262 261 260 259 259 258 257 256 255 253 253 252 252 252 252 251 251 250 249 248 246 245 244 243 242 241 242 243 243 242 240 241 240 235 234 235 234 233 232 232 233 233 233 233 232 232 233 233 233 233 234 234 234 236 236 237 237 238 238 239 240 238 238 240 241 242 241 243 246 247 246 246 246 247 247 248 248 248 249 249 249 249 252 253 254 256
263 262 261 260 260 259 258 257 256 255 254 253 252 252 251 251 250 250 250 249 248 247 246 244 243 242 241 240 240 241 242 241 239 241 240 236 236 237 236 234 233 232 232 233 233 233 232 232 232 232 233 233 233 234 234 235 236 236 237 238 238 238 239 238 237 239 242 242 242 244 245 245 245 246 247 249 250 250 249 250 249 249 250 251 253 253 254 256
264 262 261 259 259 258 257 257 256 255 254 253 252 251 250 250 249 249 248 248 248 247 245 244 242 241 240 239 239 239 241 240 238 241 242 239 239 239 238 235 233 233 232 232 232 233 233 233 233 233 233 233 233 233 234 235 236 237 237 238 238 238 239 238 236 238 242 243 242 243 244 244 246 247 249 250 251 250 248 250 250 250 250 250 252 253 253 257
266 264 262 260 258 257 256 256 255 255 254 253 252 250 249 249 248 248 248 247 246 246 244 243 242 240 239 238 238 237 239 239 238 240 241 238 239 240 239 236 234 233 232 232 232 233 233 233 233 233 233 233 233 233 234 235 236 237 237 238 238 238 239 239 236 238 241 242 241 242 243 245 246 247 249 248 249 249 249 251 251 251 250 249 252 254 255 258
267 265 263 261 259 257 256 255 254 253 253 252 251 250 249 248 247 247 246 246 245 244 243 242 241 240 238 237 237 236 237 238 236 237 240 238 238 240 240 238 236 234 233 232 232 232 232 233 233 233 233 234 233 234 235 235 236 237 238 238 238 238 239 239 237 238 241 242 242 243 244 245 246 247 247 248 250 249 246 249 249 248 249 250 252 255 258 257
267 266 264 263 261 258 256 255 254 253 252 251 250 249 249 248 247 246 245 245 244 243 241 240 240 239 237 236 236 235 235 236 233 235 238 237 236 238 240 239 237 236 235 233 232 232 232 233 233 234 234 235 235 234 235 235 236 237 238 238 238 238 238 238 238 239 241 242 242 243 243 244 246 247 248 248 250 248 244 246 247 246 248 250 252 254 254 255
268 266 265 263 262 260 258 256 254 253 251 250 249 248 247 247 246 245 245 244 243 242 240 238 238 237 236 235 235 234 233 233 231 232 236 235 235 237 238 239 238 237 236 235 234 233 232 233 233 234 234 234 235 235 235 235 236 237 237 238 238 238 237 237 238 239 240 241 242 243 243 244 246 248 247 246 249 249 246 247 249 248 248 249 250 251 252 257
268 266 265 264 262 261 259 257 255 253 252 250 249 247 246 245 245 244 243 243 242 241 240 237 236 236 235 233 234 233 231 231 230 231 234 235 234 235 237 238 238 237 237 236 235 234 233 233 233 234 234 234 234 234 234 235 236 236 237 237 237 238 238 237 238 239 240 241 242 244 245 245 247 248 247 246 249 251 248 246 249 250 250 251 250 252 255 257
269 267 265 264 263 262 260 258 256 254 253 251 249 248 246 245 244 243 242 241 240 240 239 237 235 234 233 232 232 232 230 230 229 230 232 233 233 234 235 237 237 237 237 237 236 235 234 234 234 234 234 234 234 234 234 235 236 236 236 237 237 237 237 237 238 239 240 241 242 245 246 245 246 249 248 246 248 251 249 246 248 252 252 253 252 253 255 257
269 267 265 264 263 263 261 259 257 255 254 252 251 249 247 245 243 242 241 241 240 238 237 237 235 233 231 230 232 231 229 229 229 228 230 231 232 232 233 235 236 236 236 236 236 236 235 235 235 234 233 234 233 234 235 235 236 236 237 238 238 238 237 237 237 239 240 240 241 244 246 244 245 248 247 246 247 250 250 248 248 251 252 253 254 253 254 258
269 267 265 264 263 262 261 260 258 256 254 253 252 250 248 246 243 241 240 240 240 238 236 235 235 233 229 229 231 230 228 228 228 227 227 229 230 231 231 233 234 235 235 235 235 236 236 235 235 234 234 235 234 234 235 235 236 237 237 238 238 238 238 237 237 239 240 240 241 243 245 244 244 246 246 246 248 250 251 249 248 250 251 252 252 252 253 256
269 267 266 264 262 262 261 260 258 256 254 253 252 251 250 248 245 242 239 238 238 238 236 234 233 232 229 229 229 228 227 226 226 226 225 226 228 229 230 231 233 234 234 234 235 235 235 235 235 235 235 235 234 235 236 236 237 237 237 238 238 238 239 238 236 238 240 240 240 242 244 244 244 245 246 246 248 250 251 250 248 250 250 248 247 250 254 256
268 267 266 264 262 261 261 260 258 256 254 253 252 252 251 249 246 243 240 237 236 236 236 233 232 231 229 228 227 226 225 225 225 225 224 225 226 227 228 230 231 232 233 234 234 234 234 236 236 235 236 236 235 235 236 236 235 235 235 236 236 237 238 238 235 236 240 239 238 241 243 244 244 244 244 246 248 250 251 250 249 248 248 247 247 250 254 257
268 267 266 264 263 261 260 259 258 256 254 253 253 252 251 250 247 243 239 236 234 234 234 232 230 229 228 227 226 226 225 225 226 225 224 224 226 226 227 228 230 231 233 233 233 234 235 235 236 236 236 236 235 235 235 235 234 234 234 234 235 235 237 238 234 234 239 238 238 241 243 244 244 243 243 245 247 250 250 250 248 248 249 249 249 251 252 256
267 267 265 264 262 261 260 259 258 257 255 254 253 253 252 250 247 244 240 237 234 233 233 232 229 228 228 226 226 225 224 224 225 225 223 224 225 225 225 227 228 229 231 232 232 233 234 235 235 235 234 234 234 233 234 234 234 234 234 235 235 235 237 239 234 232 237 238 238 241 242 243 244 243 242 242 245 248 249 249 248 248 249 250 250 252 250 252
266 266 265 263 262 261 260 259 258 257 255 254 254 253 253 250 247 244 240 236 233 231 231 230 228 228 228 226 226 226 224 224 225 224 223 222 224 224 224 226 226 228 230 231 231 232 233 234 233 233 232 233 233 233 234 235 235 235 235 236 236 237 238 240 237 231 235 238 238 241 242 243 245 244 242 241 243 248 249 248 248 248 249 250 251 251 249 250
266 265 264 263 261 260 259 258 257 256 255 254 254 254 253 250 247 242 238 234 232 229 229 228 226 226 226 225 226 225 224 224 224 225 223 222 224 224 224 225 225 226 227 229 230 231 233 233 232 231 231 231 232 232 234 234 235 236 236 237 237 237 237 240 239 232 234 239 239 241 243 243 245 244 242 241 242 246 249 248 247 247 248 249 249 249 248 246
265 264 263 261 260 259 258 257 256 255 255 255 254 254 252 249 245 240 237 234 231 229 228 226 225 226 225 224 224 224 223 223 222 223 222 221 223 223 223 224 224 224 226 228 229 230 231 230 229 229 229 229 230 231 232 233 234 235 236 237 238 238 237 240 241 234 232 238 240 241 243 244 245 244 244 242 241 244 247 247 246 245 246 246 246 248 246 241
263 262 262 260 258 258 256 255 255 254 254 254 254 253 250 246 243 239 236 233 231 228 227 225 223 225 225 223 222 222 222 222 221 222 221 221 222 222 222 223 223 223 224 227 228 228 228 227 227 227 228 228 229 230 231 233 234 234 235 235 236 237 236 239 241 237 231 235 240 242 243 245 247 246 245 244 243 243 245 247 246 244 245 245 244 246 243 237
261 260 259 258 257 256 255 254 253 253 253 254 254 252 248 245 241 237 234 231 229 227 226 224 222 224 224 222 222 223 223 222 222 222 221 221 222 221 221 222 223 223 223 225 226 227 227 227 227 227 228 229 229 230 232 233 234 234 234 234 236 237 236 238 240 238 235 236 241 243 243 246 248 246 244 243 243 244 245 248 249 247 245 244 243 243 241 236
259 258 257 256 255 254 253 252 251 251 251 252 253 252 247 243 239 235 232 229 228 227 225 223 221 222 223 221 221 223 223 222 223 222 221 222 223 222 221 222 223 223 223 224 225 225 226 227 228 228 228 229 230 230 232 234 234 233 234 234 237 238 237 239 240 237 237 237 239 242 243 247 248 245 243 241 242 244 245 247 248 246 244 242 242 241 240 239
257 256 255 254 253 252 251 250 249 249 250 252 253 250 245 241 237 234 230 227 226 226 224 222 221 222 222 220 220 222 222 221 222 221 220 222 223 222 222 221 223 224 223 224 225 225 226 227 228 229 229 230 230 231 232 234 233 233 235 235 237 238 237 240 242 237 235 235 238 242 244 247 247 245 245 242 241 244 244 245 246 243 242 242 242 241 240 240
254 253 252 251 250 249 248 248 247 247 248 250 250 247 242 239 235 232 229 226 225 225 224 222 221 221 222 221 220 222 221 220 221 218 218 221 222 222 222 221 223 224 224 224 224 225 226 227 228 229 229 230 230 231 232 233 233 232 235 236 237 238 238 241 243 238 234 234 240 244 245 247 248 246 247 246 245 247 247 247 248 246 244 243 243 242 240 239
252 251 250 249 248 246 246 245 244 244 245 246 246 244 240 238 234 231 228 225 225 225 223 222 221 221 221 220 219 221 221 220 221 218 217 220 221 221 221 220 221 223 224 224 223 224 225 226 227 228 229 229 229 231 232 232 233 233 235 236 238 239 240 241 242 241 235 232 238 244 245 247 248 247 248 248 248 249 248 248 249 250 248 244 244 245 244 242
251 248 247 246 245 244 243 243 241 241 242 244 245 243 240 237 233 229 227 225 224 223 221 220 220 220 220 219 218 220 220 220 221 219 217 220 221 220 220 220 220 222 223 222 223 224 224 225 227 227 228 229 229 231 232 231 233 235 235 237 238 240 241 241 242 243 238 233 238 244 245 246 248 249 249 249 249 248 247 248 249 248 247 245 244 246 248 246
249 246 245 243 241 241 240 240 238 238 239 242 242 241 238 236 232 228 227 225 223 220 219 219 219 219 218 217 218 219 218 218 219 218 217 220 223 221 221 221 221 222 223 223 224 225 225 225 227 227 227 230 230 230 233 232 233 236 236 236 239 240 241 242 243 244 240 236 239 244 244 244 248 250 248 247 249 248 249 250 249 245 242 240 236 237 242 245
245 243 242 240 238 237 237 236 235 235 236 238 238 237 235 233 230 227 227 226 222 219 218 219 218 217 216 215 216 218 217 217 218 217 216 220 222 222 223 223 223 224 224 224 225 227 227 226 227 228 227 229 231 231 233 233 234 237 237 237 239 240 242 243 244 244 241 238 241 245 245 243 245 249 247 246 249 251 251 251 251 247 241 238 233 233 237 239
240 238 237 236 235 234 234 232 231 231 232 235 236 235 233 230 228 226 226 225 221 217 217 218 217 216 214 213 215 216 216 216 216 216 216 219 220 220 221 223 223 224 224 224 225 226 227 226 227 229 228 228 231 232 233 234 235 238 240 240 241 242 244 246 247 246 243 242 243 246 247 243 243 249 250 250 252 254 252 245 246 247 243 240 238 237 237 238
234 233 233 232 231 231 230 228 227 227 229 232 232 232 230 229 227 226 225 224 220 215 215 215 215 214 212 213 214 214 214 215 215 214 216 218 219 220 222 222 223 223 224 224 224 225 226 226 227 229 229 228 231 234 233 233 235 237 239 241 241 242 245 246 247 248 246 245 245 247 248 247 248 251 253 253 253 253 247 238 238 242 243 243 241 241 241 241
229 227 227 227 227 226 226 224 223 223 225 227 227 227 226 225 225 223 222 221 218 214 213 213 212 211 211 212 213 213 212 214 214 214 216 219 219 220 222 223 223 224 225 225 225 225 225 226 226 227 227 227 229 233 234 233 235 236 238 240 241 242 243 244 245 245 245 245 245 248 250 251 251 253 254 255 254 250 245 240 238 241 245 245 243 243 243 244
224 223 222 222 222 222 221 220 219 218 220 223 223 223 223 222 222 220 218 217 213 211 211 211 210 209 209 210 211 211 212 213 213 213 216 218 218 219 221 222 223 224 226 226 226 226 225 226 227 226 226 226 227 230 233 233 234 236 238 240 241 241 241 242 243 244 244 245 247 250 252 252 253 253 253 254 254 250 246 243 241 242 244 245 245 245 245 246
218 218 217 217 217 217 216 215 214 214 216 218 219 220 220 221 220 219 217 216 213 209 208 208 209 208 208 208 209 210 212 213 212 212 215 217 217 218 220 223 223 224 226 227 226 227 226 226 227 227 226 227 228 229 231 231 231 234 237 239 239 239 240 242 243 244 246 246 248 251 252 252 252 252 251 249 249 248 246 244 244 243 245 245 245 246 247 248
213 213 213 212 212 211 211 210 209 209 211 214 216 217 218 218 218 216 214 213 212 208 206 206 206 206 206 206 208 210 211 212 211 211 215 217 217 217 219 222 224 224 226 227 226 226 227 226 227 227 226 226 227 229 232 232 232 234 237 238 238 239 241 243 244 245 247 248 249 251 251 251 252 252 250 246 245 246 245 245 246 246 247 247 246 247 248 248
211 208 207 208 207 206 206 206 205 206 208 211 212 213 214 214 214 213 212 211 209 207 205 203 204 205 205 205 206 208 210 211 210 211 214 216 216 217 219 220 222 223 225 227 227 226 227 227 227 227 227 226 226 229 232 233 233 235 237 238 239 240 242 243 244 245 247 248 248 250 251 251 252 251 248 246 245 246 245 246 246 246 246 246 246 249 251 251
206 203 201 202 201 201 201 201 201 203 206 208 209 210 212 211 210 210 209 209 208 206 203 202 202 203 204 205 206 207 209 209 208 210 213 215 215 216 218 220 221 221 222 224 226 226 226 228 228 228 227 227 228 231 234 234 234 235 237 239 241 242 243 243 244 245 246 246 247 248 249 249 249 248 247 247 248 248 247 247 248 247 246 246 248 250 253 253
199 197 196 195 195 196 197 196 197 200 203 204 206 208 210 209 208 208 207 207 206 204 202 202 203 203 204 205 206 207 209 208 207 209 212 214 215 215 216 218 219 221 222 222 224 224 225 228 229 229 228 228 229 232 235 235 235 236 237 239 240 240 242 243 244 245 244 245 246 247 247 246 245 245 246 249 250 249 249 250 250 249 249 250 250 251 252 253
191 190 189 190 191 192 192 192 195 198 199 201 203 205 207 206 205 205 204 204 203 202 201 200 201 204 204 204 205 207 210 210 209 210 213 213 214 215 216 217 219 220 222 223 223 223 223 225 228 229 228 228 229 231 233 235 236 236 237 239 239 239 241 242 243 243 243 244 245 245 245 245 245 244 244 250 254 252 251 252 252 251 251 251 250 250 251 253
184 184 184 186 188 189 189 190 192 195 196 199 201 202 204 204 202 202 202 202 201 201 201 200 200 203 204 205 206 207 209 210 210 212 214 215 215 217 217 218 220 221 221 223 223 223 224 226 227 229 228 228 228 230 232 234 236 237 237 239 241 241 242 242 242 242 241 240 241 242 243 243 244 244 241 242 249 252 251 251 251 250 249 249 249 249 251 254
181 180 181 183 185 185 187 189 191 192 193 196 198 199 201 201 199 200 201 202 201 200 200 201 201 202 204 205 207 208 210 211 212 213 215 216 217 218 219 219 220 222 223 225 225 225 226 227 227 227 227 228 228 230 233 235 237 238 239 239 240 241 241 242 241 239 238 238 238 240 241 241 239 240 238 234 238 245 248 249 250 249 247 247 249 250 250 254
176 177 178 180 182 183 185 187 188 189 191 193 195 196 197 197 198 199 200 201 202 201 201 201 202 203 204 206 207 208 210 212 214 216 217 218 218 219 220 220 221 222 224 226 227 227 228 228 228 228 228 229 229 230 233 236 237 238 237 237 238 239 239 238 237 237 237 238 239 240 241 242 239 238 237 234 235 239 243 246 249 249 248 248 249 250 251 254
172 174 176 179 181 183 183 184 185 186 188 191 192 193 194 194 196 197 198 200 201 202 203 203 203 204 205 207 208 209 211 212 215 217 218 219 220 220 221 221 222 223 225 227 228 229 230 231 231 231 231 231 231 231 231 233 234 234 235 234 234 234 235 234 234 235 236 238 240 241 243 244 242 239 236 235 235 236 239 243 246 247 247 247 247 248 250 253
171 173 176 177 179 180 181 181 182 183 185 187 188 190 191 192 194 195 196 198 200 202 204 204 205 206 206 208 209 210 212 214 216 218 218 219 220 221 222 223 222 224 226 228 230 231 232 233 233 234 234 234 234 234 234 235 236 236 235 233 230 229 231 232 232 234 235 236 237 240 241 241 241 240 239 238 238 239 241 243 243 242 243 244 245 248 250 252
171 173 174 175 176 177 177 178 179 181 184 185 186 188 190 192 193 194 194 196 198 200 202 204 205 206 207 208 210 211 213 215 217 219 219 221 222 223 224 224 224 225 227 228 230 231 232 234 234 234 235 235 236 236 236 237 237 236 235 232 227 226 227 229 229 231 234 235 235 235 237 239 239 240 241 242 242 243 244 244 241 240 242 244 245 248 249 252
170 170 170 171 173 174 175 175 177 180 182 184 186 188 191 192 193 193 194 197 199 201 203 205 206 207 208 210 211 213 215 216 218 219 220 222 224 225 225 225 225 226 227 228 229 230 232 233 234 234 235 235 235 235 235 236 235 234 232 229 226 226 226 226 225 227 231 233 233 233 235 237 239 240 241 242 244 245 244 243 241 240 241 244 247 249 250 252
167 167 168 168 169 170 172 174 177 180 182 185 187 189 191 194 196 197 198 199 201 203 205 206 208 209 210 212 213 215 217 219 220 221 222 223 225 226 227 226 226 226 227 228 229 230 231 232 232 233 234 234 234 234 234 234 234 232 228 224 223 224 226 225 224 225 229 232 232 233 234 235 237 239 240 242 245 246 245 242 240 239 241 243 246 248 250 252
162 165 167 166 166 168 171 174 177 180 183 185 187 189 191 194 197 199 201 202 204 205 207 208 209 211 212 213 215 216 218 220 222 222 224 226 227 229 230 229 228 228 228 228 228 229 229 230 232 233 233 234 234 234 233 233 232 230 227 224 221 222 224 225 226 227 230 232 233 234 234 234 235 237 240 243 246 248 246 242 239 238 240 242 244 247 249 251
158 163 166 165 165 168 171 174 177 179 182 185 187 189 191 193 196 199 201 204 205 206 208 208 209 211 212 213 214 216 218 220 222 222 223 225 227 228 229 230 229 228 228 228 228 228 227 228 229 230 231 231 231 231 231 232 231 230 229 227 224 225 226 226 227 229 231 233 233 234 235 235 235 236 239 241 244 246 247 245 240 238 240 243 244 247 250 251
Height
10616 10617 10618 10618 10619 10620 10620 10621 10622 10623 10625 10627 10628 10630 10632 10633 10634 10635 10637 10639 10640 10642 10645 10647 10649 10651 10654 10657 10659 10662 10666 10669 10673 10677 10679 10684 10689 10689 10691 10697 10700 10704 10707 10711 10715 10719 10722 10726 10730 10733 10737 10740 10743 10746 10748 10751 10754 10758 10762 10764 10766 10769 10770 10772 10778 10780 10784 10794 10803 10808 10797 10790 10796 10796 10800 10802 10802 10807 10812 10814 10814 10818 10822 10821 10824 10825 10827 10830
10608 10609 10610 10610 10611 10612 10613 10614 10615 10616 10618 10620 10621 10623 10625 10626 10628 10629 10631 10632 10634 10636 10638 10641 10643 10646 10648 10650 10653 10656 10659 10663 10668 10670 10673 10679 10682 10683 10688 10691 10694 10698 10701 10704 10708 10712 10717 10720 10724 10727 10731 10734 10737 10740 10744 10746 10749 10753 10756 10759 10761 10763 10764 10767 10775 10779 10785 10794 10801 10800 10786 10783 10791 10793 10797 10799 10798 10805 10809 10809 10809 10815 10817 10818 10819 10820 10823 10826
10599 10600 10601 10602 10603 10604 10605 10606 10607 10609 10611 10613 10614 10616 10617 10620 10621 10623 10625 10626 10627 10629 10631 10635 10637 10640 10642 10644 10648 10650 10653 10658 10661 10665 10669 10674 10677 10679 10683 10685 10688 10691 10694 10698 10702 10706 10710 10714 10718 10721 10724 10728 10731 10736 10739 10740 10744 10747 10750 10754 10755 10757 10758 10765 10776 10780 10783 10788 10794 10790 10776 10778 10789 10791 10793 10794 10795 10801 10804 10805 10806 10811 10813 10814 10815 10815 10818 10821
10590 10591 10592 10593 10594 10595 10596 10598 10599 10601 10603 10605 10606 10608 10610 10612 10614 10616 10618 10619 10621 10622 10625 10628 10631 10634 10635 10639 10642 10644 10648 10651 10655 10661 10664 10668 10671 10674 10677 10679 10682 10684 10688 10692 10696 10700 10704 10708 10711 10714 10718 10722 10726 10731 10734 10735 10738 10741 10745 10748 10748 10751 10756 10766 10775 10776 10777 10782 10786 10780 10770 10778 10789 10789 10788 10788 10791 10795 10799 10802 10804 10808 10810 10810 10811 10812 10814 10817
10581 10581 10582 10583 10584 10585 10587 10588 10590 10592 10594 10596 10598 10601 10603 10605 10607 10609 10611 10613 10614 10616 10618 10621 10624 10627 10629 10633 10635 10639 10642 10645 10653 10657 10657 10661 10666 10667 10669 10672 10676 10679 10683 10687 10690 10694 10698 10702 10704 10708 10712 10716 10720 10725 10728 10729 10732 10736 10740 10740 10742 10749 10757 10764 10768 10771 10774 10775 10776 10772 10769 10781 10787 10783 10781 10782 10786 10789 10795 10802 10804 10805 10805 10807 10808 10809 10811 10814
10572 10572 10573 10574 10575 10576 10577 10579 10580 10582 10584 10587 10590 10592 10595 10597 10599 10601 10604 10605 10606 10609 10612 10615 10617 10620 10623 10627 10630 10633 10635 10641 10651 10649 10647 10655 10659 10660 10662 10667 10671 10674 10678 10681 10684 10688 10691 10695 10698 10702 10705 10710 10714 10718 10721 10723 10726 10731 10733 10733 10740 10749 10752 10757 10763 10768 10769 10766 10769 10770 10772 10779 10778 10774 10774 10776 10781 10786 10793 10800 10801 10799 10801 10804 10805 10806 10808 10810
10564 10564 10564 10565 10566 10566 10568 10569 10571 10572 10574 10577 10580 10583 10585 10588 10590 10593 10596 10597 10599 10602 10605 10608 10611 10613 10616 10620 10624 10627 10631 10638 10643 10639 10641 10650 10653 10654 10657 10661 10666 10670 10673 10676 10678 10682 10685 10688 10692 10695 10698 10703 10708 10711 10714 10717 10721 10724 10726 10729 10738 10745 10745 10752 10762 10765 10761 10759 10766 10768 10768 10770 10767 10768 10770 10774 10779 10784 10792 10796 10794 10795 10799 10801 10801 10803 10805 10807
10554 10555 10555 10556 10557 10557 10559 10560 10562 10563 10565 10567 10570 10572 10575 10578 10581 10584 10587 10589 10591 10595 10598 10600 10603 10606 10609 10613 10617 10622 10626 10630 10635 10635 10638 10646 10647 10649 10651 10656 10661 10664 10667 10670 10673 10676 10679 10683 10686 10689 10692 10696 10701 10705 10707 10712 10716 10718 10722 10726 10734 10740 10741 10750 10758 10758 10754 10754 10762 10762 10762 10763 10762 10766 10769 10771 10775 10780 10789 10789 10786 10793 10796 10796 10798 10800 10802 10805
10546 10546 10546 10547 10548 10548 10550 10551 10553 10555 10557 10558 10560 10563 10565 10568 10572 10575 10578 10580 10583 10587 10590 10593 10596 10599 10602 10606 10611 10617 10619 10622 10633 10633 10631 10638 10641 10642 10645 10650 10655 10657 10661 10664 10668 10671 10674 10678 10679 10683 10685 10689 10694 10698 10702 10707 10711 10712 10717 10723 10729 10735 10738 10745 10752 10752 10748 10749 10756 10756 10756 10758 10759 10764 10763 10766 10769 10777 10786 10783 10782 10789 10790 10792 10794 10795 10799 10803
10538 10538 10538 10538 10538 10540 10541 10542 10544 10546 10548 10550 10551 10554 10556 10559 10562 10565 10568 10571 10574 10578 10582 10586 10589 10591 10595 10600 10605 10611 10612 10618 10631 10626 10621 10632 10637 10637 10639 10643 10648 10651 10655 10659 10663 10666 10668 10671 10673 10677 10680 10684 10690 10694 10698 10703 10705 10708 10714 10719 10725 10730 10734 10739 10746 10746 10742 10744 10751 10750 10751 10754 10756 10757 10756 10761 10768 10774 10781 10777 10779 10784 10785 10789 10790 10792 10797 10799
10530 10530 10529 10530 10530 10531 10532 10534 10536 10537 10540 10541 10543 10546 10547 10550 10553 10556 10559 10561 10565 10568 10574 10578 10580 10584 10589 10594 10599 10604 10606 10614 10623 10618 10616 10627 10631 10631 10634 10637 10642 10646 10649 10654 10657 10660 10662 10666 10669 10673 10676 10680 10685 10689 10693 10697 10700 10705 10710 10714 10719 10724 10728 10733 10738 10738 10737 10741 10745 10743 10745 10749 10751 10749 10751 10760 10764 10767 10774 10773 10775 10779 10782 10786 10787 10790 10794 10795
10522 10522 10521 10521 10522 10522 10523 10525 10527 10528 10530 10532 10534 10537 10539 10542 10544 10547 10550 10552 10556 10559 10565 10569 10573 10578 10581 10589 10595 10596 10599 10606 10613 10612 10611 10620 10625 10627 10628 10630 10636 10640 10644 10648 10651 10654 10658 10661 10665 10669 10671 10675 10679 10683 10687 10691 10696 10700 10703 10707 10712 10716 10722 10727 10731 10731 10732 10735 10736 10737 10740 10746 10747 10742 10746 10757 10759 10760 10768 10770 10770 10774 10779 10782 10785 10788 10790 10790
10514 10514 10513 10513 10513 10514 10515 10516 10517 10519 10521 10523 10525 10528 10531 10534 10535 10538 10540 10543 10546 10550 10556 10561 10566 10570 10576 10586 10585 10583 10592 10598 10605 10607 10607 10615 10619 10621 10623 10625 10630 10635 10639 10642 10645 10650 10653 10657 10660 10663 10666 10670 10674 10677 10683 10686 10689 10693 10696 10701 10706 10710 10716 10722 10724 10725 10727 10729 10731 10734 10736 10742 10741 10734 10740 10755 10757 10753 10760 10766 10767 10770 10775 10779 10782 10785 10786 10787
10506 10506 10505 10505 10505 10505 10506 10507 10508 10509 10511 10513 10516 10518 10521 10525 10527 10530 10531 10534 10536 10541 10547 10553 10559 10563 10572 10578 10572 10575 10588 10592 10598 10602 10603 10609 10612 10615 10618 10620 10624 10629 10633 10636 10640 10644 10647 10651 10654 10657 10662 10665 10667 10672 10678 10680 10681 10687 10691 10694 10699 10705 10711 10715 10716 10719 10721 10723 10728 10730 10729 10735 10734 10727 10737 10752 10752 10744 10750 10762 10766 10767 10771 10775 10778 10781 10783 10784
10497 10497 10497 10497 10497 10497 10497 10498 10499 10500 10502 10504 10506 10508 10512 10515 10518 10520 10522 10524 10527 10532 10538 10545 10551 10556 10566 10567 10562 10571 10582 10585 10592 10595 10597 10602 10606 10610 10612 10614 10619 10623 10628 10632 10635 10639 10642 10647 10648 10652 10657 10658 10663 10670 10673 10674 10677 10682 10686 10689 10694 10699 10703 10706 10711 10714 10714 10718 10726 10725 10720 10727 10727 10721 10734 10747 10744 10738 10743 10757 10765 10765 10768 10772 10775 10778 10779 10782
10487 10488 10489 10488 10488 10488 10489 10489 10490 10491 10492 10494 10496 10499 10502 10505 10508 10510 10512 10515 10518 10524 10530 10537 10543 10549 10558 10557 10555 10567 10575 10579 10582 10585 10591 10596 10599 10603 10606 10610 10614 10617 10623 10626 10630 10634 10638 10640 10642 10647 10652 10655 10662 10667 10666 10669 10673 10677 10682 10685 10688 10692 10694 10699 10706 10708 10707 10714 10722 10718 10711 10717 10719 10717 10730 10741 10737 10734 10740 10752 10761 10762 10765 10769 10772 10774 10775 10778
10478 10478 10479 10480 10480 10479 10480 10480 10481 10481 10483 10484 10487 10489 10492 10494 10497 10499 10502 10506 10510 10515 10521 10528 10534 10542 10549 10547 10550 10560 10565 10568 10570 10576 10586 10589 10592 10597 10601 10606 10608 10612 10617 10620 10626 10630 10631 10634 10638 10645 10648 10652 10659 10661 10661 10666 10670 10673 10677 10679 10682 10686 10688 10692 10701 10703 10702 10710 10716 10709 10702 10708 10712 10715 10728 10735 10732 10731 10736 10746 10756 10758 10761 10765 10768 10770 10771 10774
10468 10468 10469 10470 10471 10471 10471 10471 10471 10472 10473 10475 10478 10480 10481 10483 10486 10489 10492 10496 10502 10506 10513 10520 10527 10534 10537 10538 10543 10549 10552 10557 10562 10570 10579 10582 10586 10591 10596 10600 10602 10607 10611 10616 10622 10624 10626 10630 10635 10641 10644 10649 10654 10656 10658 10661 10664 10667 10670 10673 10676 10680 10681 10684 10694 10699 10696 10703 10708 10699 10695 10700 10705 10714 10725 10730 10727 10727 10730 10741 10752 10754 10756 10760 10764 10765 10767 10770
10458 10458 10459 10460 10461 10462 10462 10462 10462 10463 10464 10467 10469 10470 10470 10472 10475 10478 10481 10487 10493 10499 10504 10510 10516 10522 10525 10530 10534 10537 10545 10553 10558 10566 10574 10577 10580 10585 10591 10593 10597 10602 10607 10612 10617 10618 10622 10627 10632 10638 10642 10645 10648 10650 10652 10654 10657 10661 10664 10667 10670 10673 10675 10677 10688 10694 10690 10694 10699 10691 10689 10694 10699 10711 10722 10725 10724 10720 10725 10737 10746 10749 10750 10755 10759 10760 10763 10766
10448 10448 10449 10450 10451 10452 10452 10453 10453 10453 10455 10458 10459 10459 10460 10462 10464 10468 10474 10481 10486 10491 10494 10499 10507 10513 10517 10523 10525 10529 10540 10548 10554 10561 10567 10570 10573 10579 10584 10586 10592 10598 10603 10608 10611 10613 10618 10623 10630 10635 10637 10638 10641 10643 10645 10648 10652 10656 10659 10662 10666 10669 10671 10673 10682 10690 10684 10687 10691 10683 10684 10690 10693 10707 10718 10722 10719 10713 10720 10734 10739 10743 10745 10749 10755 10756 10759 10761
10437 10438 10439 10440 10441 10442 10443 10444 10444 10445 10447 10448 10449 10449 10450 10453 10456 10461 10467 10472 10476 10480 10484 10491 10502 10505 10508 10516 10518 10525 10537 10544 10549 10552 10557 10563 10567 10572 10578 10582 10589 10595 10599 10602 10604 10608 10614 10621 10627 10629 10630 10632 10635 10638 10640 10644 10648 10651 10655 10658 10662 10666 10668 10669 10675 10684 10680 10681 10684 10677 10680 10687 10688 10702 10713 10716 10715 10709 10716 10728 10732 10738 10741 10745 10750 10750 10753 10756
10427 10427 10428 10430 10431 10433 10434 10434 10435 10436 10437 10439 10440 10440 10442 10446 10449 10452 10456 10460 10464 10470 10474 10484 10494 10494 10498 10508 10514 10524 10534 10537 10540 10543 10551 10558 10561 10568 10574 10577 10584 10590 10592 10594 10598 10605 10612 10618 10622 10622 10624 10626 10630 10634 10635 10640 10643 10647 10652 10655 10658 10662 10664 10665 10668 10678 10678 10677 10678 10673 10677 10683 10683 10696 10707 10710 10712 10707 10710 10720 10726 10732 10737 10742 10744 10743 10749 10751
10416 10417 10417 10419 10421 10422 10424 10425 10426 10428 10428 10429 10430 10431 10435 10438 10438 10441 10447 10451 10456 10462 10467 10477 10485 10482 10489 10503 10511 10518 10522 10523 10528 10535 10544 10552 10555 10562 10567 10572 10578 10582 10585 10590 10595 10602 10608 10613 10614 10615 10618 10621 10626 10629 10630 10635 10640 10645 10649 10651 10654 10657 10661 10660 10661 10672 10678 10673 10671 10671 10674 10675 10678 10692 10700 10704 10707 10704 10705 10712 10720 10727 10732 10736 10737 10739 10745 10746
10404 10406 10406 10408 10411 10412 10414 10416 10417 10418 10419 10420 10421 10424 10427 10428 10429 10434 10440 10443 10448 10454 10459 10469 10474 10474 10484 10498 10503 10506 10508 10512 10520 10528 10538 10545 10547 10553 10560 10565 10570 10574 10580 10585 10590 10597 10602 10604 10605 10608 10612 10616 10621 10624 10626 10631 10637 10642 10644 10647 10649 10651 10656 10655 10655 10668 10674 10669 10666 10669 10671 10669 10676 10691 10695 10698 10701 10699 10699 10705 10714 10723 10728 10731 10732 10735 10739 10743
10392 10394 10395 10397 10400 10402 10405 10407 10408 10410 10410 10411 10414 10416 10419 10419 10422 10427 10431 10435 10440 10446 10451 10460 10466 10468 10477 10489 10495 10497 10501 10509 10517 10526 10535 10538 10540 10546 10554 10558 10563 10569 10575 10579 10584 10591 10595 10597 10600 10604 10608 10612 10617 10620 10623 10627 10634 10638 10640 10643 10642 10646 10652 10648 10652 10664 10668 10667 10664 10666 10668 10666 10676 10687 10689 10692 10694 10693 10695 10701 10709 10718 10724 10727 10728 10730 10733 10737
10379 10382 10383 10385 10389 10393 10396 10397 10399 10401 10402 10404 10407 10409 10410 10412 10415 10419 10422 10428 10433 10437 10443 10452 10458 10461 10470 10482 10489 10489 10496 10508 10514 10521 10530 10531 10534 10541 10547 10553 10558 10564 10569 10572 10577 10584 10589 10592 10596 10600 10604 10609 10613 10616 10620 10624 10631 10635 10635 10637 10637 10643 10647 10641 10650 10661 10662 10664 10661 10660 10665 10665 10672 10681 10682 10687 10688 10687 10692 10697 10703 10712 10717 10720 10722 10724 10726 10730
10366 10369 10371 10374 10379 10383 10386 10388 10390 10392 10394 10398 10400 10401 10402 10404 10408 10411 10415 10422 10427 10430 10437 10445 10451 10456 10464 10474 10479 10482 10495 10504 10504 10513 10523 10523 10528 10535 10541 10549 10553 10558 10563 10566 10572 10580 10585 10588 10592 10597 10600 10605 10610 10613 10617 10620 10627 10631 10629 10631 10634 10638 10640 10637 10647 10657 10657 10659 10656 10657 10664 10663 10668 10674 10676 10682 10683 10683 10689 10693 10697 10704 10709 10713 10716 10718 10720 10723
10353 10357 10359 10363 10368 10373 10376 10378 10381 10385 10389 10391 10391 10392 10394 10397 10401 10405 10409 10416 10420 10423 10432 10439 10445 10451 10456 10465 10474 10480 10488 10491 10492 10505 10515 10516 10521 10528 10534 10543 10547 10552 10556 10561 10570 10576 10579 10583 10588 10592 10596 10601 10607 10609 10611 10616 10623 10625 10623 10627 10629 10632 10634 10635 10642 10650 10653 10655 10654 10656 10661 10660 10664 10669 10671 10678 10680 10682 10688 10689 10692 10700 10705 10708 10710 10711 10713 10716
10340 10344 10347 10352 10358 10363 10366 10369 10373 10378 10381 10382 10382 10385 10388 10391 10395 10399 10404 10411 10414 10419 10428 10434 10440 10444 10449 10460 10469 10473 10478 10483 10488 10500 10507 10508 10514 10521 10527 10536 10540 10543 10548 10557 10564 10567 10572 10578 10581 10585 10591 10597 10601 10602 10606 10613 10617 10617 10618 10622 10624 10626 10631 10633 10637 10643 10649 10653 10652 10653 10657 10658 10659 10662 10667 10674 10677 10680 10683 10685 10689 10697 10702 10703 10704 10704 10706 10708
10328 10332 10336 10342 10348 10353 10356 10360 10366 10371 10372 10374 10376 10379 10383 10386 10390 10394 10400 10404 10406 10413 10422 10428 10431 10435 10442 10454 10461 10464 10471 10479 10484 10493 10502 10504 10506 10513 10520 10526 10530 10533 10541 10551 10556 10560 10568 10572 10574 10581 10588 10591 10594 10598 10602 10609 10611 10610 10614 10618 10619 10623 10626 10629 10632 10638 10646 10652 10650 10649 10653 10654 10653 10657 10664 10669 10672 10675 10678 10682 10688 10694 10697 10698 10701 10700 10698 10699
10315 10319 10324 10331 10338 10343 10346 10352 10359 10363 10365 10368 10371 10374 10378 10380 10385 10390 10393 10394 10398 10408 10417 10419 10422 10429 10439 10449 10453 10457 10465 10472 10476 10488 10498 10498 10500 10509 10515 10520 10526 10530 10538 10547 10552 10556 10562 10566 10571 10579 10584 10584 10590 10595 10598 10604 10605 10604 10609 10613 10614 10619 10622 10625 10629 10634 10643 10649 10647 10645 10647 10650 10650 10652 10659 10664 10665 10669 10675 10681 10685 10689 10692 10694 10697 10695 10691 10691
10301 10307 10313 10321 10327 10332 10337 10345 10351 10355 10358 10361 10364 10368 10371 10375 10380 10384 10384 10386 10395 10405 10410 10411 10417 10425 10434 10441 10444 10449 10458 10466 10473 10484 10492 10492 10497 10507 10513 10518 10525 10529 10537 10545 10549 10552 10557 10564 10568 10572 10577 10581 10587 10591 10593 10598 10601 10599 10604 10609 10611 10615 10618 10622 10626 10631 10640 10644 10642 10641 10641 10645 10646 10646 10654 10660 10660 10666 10675 10678 10678 10681 10685 10688 10691 10690 10686 10685
10289 10296 10303 10310 10317 10323 10330 10338 10343 10347 10351 10356 10360 10363 10367 10371 10374 10374 10376 10382 10391 10399 10402 10406 10413 10420 10427 10433 10436 10443 10454 10462 10469 10479 10484 10485 10491 10501 10506 10512 10518 10524 10532 10537 10541 10545 10551 10558 10562 10565 10574 10580 10583 10585 10589 10594 10597 10596 10601 10605 10608 10613 10617 10621 10623 10627 10634 10636 10636 10635 10632 10637 10643 10644 10652 10657 10657 10665 10672 10671 10669 10671 10675 10679 10682 10682 10679 10679
10279 10286 10293 10300 10307 10315 10322 10329 10334 10341 10347 10351 10355 10359 10362 10365 10366 10368 10373 10379 10386 10391 10396 10401 10407 10413 10421 10427 10431 10440 10451 10458 10464 10472 10476 10479 10488 10497 10501 10507 10513 10519 10524 10527 10531 10538 10545 10552 10557 10563 10572 10577 10578 10579 10584 10590 10590 10591 10596 10598 10603 10611 10615 10617 10618 10622 10627 10628 10629 10628 10625 10633 10642 10645 10650 10652 10655 10662 10665 10664 10663 10664 10667 10672 10674 10674 10673 10673
10270 10276 10283 10290 10299 10306 10314 10321 10329 10336 10341 10345 10350 10354 10356 10358 10359 10364 10369 10374 10380 10387 10390 10395 10400 10408 10416 10422 10428 10438 10446 10451 10459 10468 10472 10478 10487 10494 10498 10504 10510 10514 10517 10521 10527 10534 10541 10546 10552 10558 10564 10568 10572 10573 10578 10583 10583 10586 10590 10592 10601 10609 10609 10609 10612 10615 10617 10619 10623 10621 10622 10632 10640 10643 10647 10648 10652 10658 10658 10659 10660 10660 10662 10666 10668 10668 10667 10668
10261 10267 10274 10282 10291 10299 10307 10316 10324 10330 10336 10341 10345 10347 10348 10351 10354 10359 10364 10368 10374 10380 10385 10391 10397 10404 10411 10418 10426 10434 10440 10446 10455 10465 10469 10475 10483 10488 10493 10498 10503 10508 10511 10516 10523 10528 10535 10541 10544 10549 10555 10560 10565 10568 10569 10574 10579 10581 10584 10590 10599 10602 10598 10601 10606 10608 10610 10615 10619 10618 10622 10631 10636 10639 10643 10644 10648 10652 10653 10653 10654 10655 10657 10660 10661 10661 10662 10663
10253 10259 10267 10275 10284 10293 10302 10310 10318 10325 10332 10336 10338 10340 10343 10347 10352 10357 10362 10366 10371 10376 10382 10388 10395 10402 10409 10416 10423 10430 10436 10443 10454 10463 10465 10469 10477 10484 10489 10493 10498 10503 10506 10511 10517 10522 10528 10533 10534 10541 10550 10555 10560 10561 10559 10564 10572 10575 10581 10588 10591 10589 10590 10595 10601 10603 10607 10613 10616 10616 10620 10627 10629 10633 10638 10640 10642 10644 10645 10647 10648 10649 10651 10653 10654 10655 10656 10657
10247 10253 10262 10271 10279 10288 10297 10306 10314 10321 10326 10328 10332 10337 10341 10345 10350 10354 10358 10363 10369 10374 10379 10385 10392 10399 10405 10412 10420 10426 10432 10441 10452 10459 10462 10466 10473 10479 10484 10488 10492 10497 10500 10504 10510 10515 10519 10523 10526 10534 10543 10548 10551 10551 10551 10559 10569 10574 10579 10580 10579 10582 10588 10592 10596 10600 10604 10609 10611 10611 10615 10621 10623 10628 10632 10633 10635 10637 10638 10640 10642 10643 10644 10646 10647 10648 10649 10651
10244 10250 10259 10267 10276 10285 10294 10302 10310 10316 10320 10324 10329 10334 10337 10341 10345 10350 10355 10361 10366 10371 10377 10383 10389 10396 10402 10409 10415 10422 10430 10439 10448 10454 10457 10462 10468 10474 10478 10482 10486 10491 10495 10498 10503 10509 10512 10515 10520 10528 10534 10538 10542 10543 10546 10558 10567 10570 10571 10570 10573 10581 10586 10587 10591 10596 10599 10603 10604 10605 10610 10615 10617 10622 10624 10625 10628 10631 10632 10634 10636 10637 10638 10640 10641 10642 10643 10644
10243 10249 10256 10265 10274 10283 10291 10299 10307 10312 10316 10320 10325 10329 10332 10337 10342 10347 10353 10359 10363 10369 10376 10381 10386 10393 10399 10405 10412 10419 10425 10434 10443 10448 10451 10456 10462 10467 10471 10475 10480 10484 10488 10491 10496 10501 10506 10509 10513 10518 10525 10531 10539 10544 10548 10555 10560 10562 10563 10566 10572 10578 10580 10581 10585 10590 10593 10595 10597 10601 10605 10608 10612 10616 10617 10618 10623 10626 10626 10628 10630 10631 10633 10635 10636 10637 10637 10638
10241 10247 10254 10263 10272 10280 10289 10296 10302 10306 10311 10316 10321 10326 10330 10336 10341 10347 10353 10357 10362 10369 10375 10380 10386 10391 10397 10404 10412 10418 10422 10430 10438 10442 10445 10450 10456 10461 10465 10470 10476 10479 10483 10486 10490 10495 10501 10503 10504 10510 10520 10530 10539 10543 10543 10546 10551 10555 10558 10561 10567 10571 10572 10575 10580 10584 10587 10589 10593 10597 10597 10601 10606 10611 10614 10616 10619 10621 10620 10622 10625 10626 10629 10631 10630 10631 10632 10634
10239 10246 10254 10262 10270 10277 10285 10291 10296 10302 10308 10314 10319 10324 10329 10334 10340 10345 10350 10355 10361 10367 10372 10378 10384 10389 10395 10402 10408 10415 10420 10428 10435 10437 10440 10445 10451 10456 10462 10468 10472 10476 10480 10483 10486 10491 10494 10495 10498 10507 10518 10526 10532 10533 10533 10537 10543 10547 10550 10554 10559 10563 10565 10569 10573 10578 10582 10585 10588 10589 10589 10595 10602 10609 10615 10616 10614 10614 10615 10616 10619 10621 10623 10624 10624 10626 10627 10629
10237 10244 10252 10260 10267 10275 10281 10287 10293 10300 10306 10311 10317 10323 10328 10333 10339 10343 10347 10352 10357 10363 10368 10374 10380 10385 10393 10399 10405 10412 10418 10424 10429 10432 10436 10442 10448 10454 10460 10465 10469 10473 10477 10478 10481 10485 10487 10491 10498 10506 10513 10518 10521 10523 10525 10530 10534 10538 10544 10550 10554 10558 10562 10565 10569 10572 10575 10578 10580 10580 10582 10591 10599 10605 10612 10613 10608 10606 10608 10610 10612 10614 10616 10618 10619 10621 10622 10624
10238 10244 10252 10259 10267 10274 10280 10286 10292 10299 10305 10311 10317 10322 10327 10332 10338 10342 10346 10350 10355 10361 10367 10373 10379 10385 10391 10398 10404 10410 10415 10420 10425 10429 10434 10440 10446 10452 10457 10462 10465 10470 10473 10474 10477 10482 10485 10490 10496 10501 10506 10511 10515 10520 10523 10528 10531 10536 10543 10548 10550 10554 10557 10561 10564 10565 10566 10570 10573 10572 10575 10586 10594 10598 10603 10604 10600 10598 10600 10603 10606 10608 10611 10614 10615 10616 10617 10619
10241 10247 10253 10259 10266 10272 10278 10285 10293 10299 10305 10311 10316 10321 10326 10332 10336 10341 10345 10350 10356 10361 10366 10371 10377 10383 10389 10395 10401 10407 10413 10419 10423 10427 10432 10437 10443 10449 10453 10458 10462 10466 10468 10469 10473 10478 10481 10485 10491 10496 10501 10507 10513 10519 10523 10526 10528 10532 10538 10543 10545 10548 10551 10554 10556 10556 10560 10567 10567 10565 10570 10581 10590 10593 10595 10594 10593 10593 10596 10598 10601 10604 10607 10609 10610 10611 10612 10614
10244 10248 10254 10260 10266 10272 10279 10286 10293 10299 10305 10311 10317 10322 10326 10331 10335 10340 10345 10350 10355 10360 10365 10371 10376 10382 10388 10393 10399 10405 10410 10414 10418 10422 10428 10435 10441 10445 10449 10454 10458 10460 10462 10465 10469 10474 10477 10482 10488 10493 10497 10503 10508 10512 10515 10516 10519 10524 10530 10534 10538 10541 10542 10545 10548 10552 10559 10563 10560 10560 10568 10578 10584 10587 10587 10587 10588 10590 10592 10594 10597 10600 10602 10603 10604 10606 10607 10608
10245 10250 10255 10261 10268 10275 10282 10288 10294 10300 10306 10311 10317 10322 10326 10330 10334 10339 10344 10349 10354 10359 10365 10371 10376 10381 10386 10391 10396 10401 10406 10410 10414 10419 10425 10431 10435 10439 10443 10448 10452 10456 10459 10463 10467 10471 10474 10479 10484 10489 10493 10498 10501 10505 10509 10512 10516 10520 10523 10526 10531 10533 10534 10538 10545 10551 10554 10552 10551 10556 10565 10572 10576 10578 10579 10581 10584 10587 10589 10590 10592 10595 10596 10598 10600 10601 10602 10604
10247 10252 10258 10264 10270 10276 10282 10289 10295 10301 10307 10312 10317 10321 10325 10330 10334 10339 10344 10348 10352 10357 10361 10366 10371 10377 10382 10387 10392 10397 10401 10405 10410 10416 10422 10427 10430 10434 10439 10443 10448 10453 10455 10458 10462 10466 10469 10473 10479 10484 10488 10492 10495 10499 10503 10507 10510 10513 10515 10520 10525 10526 10528 10534 10541 10546 10543 10539 10544 10553 10560 10564 10568 10570 10573 10576 10579 10581 10584 10586 10587 10589 10591 10593 10595 10597 10599 10600
10251 10255 10261 10267 10273 10279 10284 10290 10296 10302 10307 10312 10317 10321 10326 10330 10334 10338 10342 10346 10350 10354 10359 10363 10368 10373 10379 10383 10388 10393 10397 10402 10407 10413 10418 10422 10425 10428 10432 10437 10442 10446 10449 10453 10457 10461 10464 10468 10474 10478 10481 10484 10488 10492 10496 10499 10502 10505 10509 10514 10518 10520 10524 10528 10532 10533 10530 10529 10539 10550 10555 10559 10562 10564 10567 10569 10572 10575 10578 10581 10583 10585 10587 10588 10591 10593 10595 10596
10256 10260 10264 10268 10274 10281 10287 10292 10297 10302 10307 10312 10317 10321 10326 10330 10335 10338 10341 10345 10350 10354 10357 10361 10366 10371 10376 10381 10386 10391 10396 10400 10405 10410 10414 10417 10419 10422 10425 10430 10435 10439 10443 10448 10452 10455 10458 10463 10468 10471 10474 10477 10481 10485 10489 10491 10495 10499 10502 10506 10511 10514 10516 10516 10518 10521 10522 10526 10538 10548 10551 10554 10557 10558 10560 10563 10565 10568 10571 10575 10578 10580 10582 10584 10586 10588 10590 10591
10259 10264 10268 10271 10276 10282 10288 10293 10298 10302 10307 10312 10317 10322 10326 10330 10334 10338 10341 10345 10348 10352 10356 10360 10365 10369 10374 10379 10384 10388 10393 10397 10401 10406 10410 10412 10415 10418 10421 10425 10430 10434 10438 10442 10446 10449 10453 10458 10461 10464 10468 10472 10477 10480 10482 10484 10487 10491 10494 10499 10502 10503 10504 10506 10512 10519 10523 10529 10539 10544 10546 10549 10551 10552 10553 10556 10558 10561 10565 10570 10573 10575 10577 10579 10581 10583 10585 10586
10262 10267 10271 10275 10278 10283 10288 10293 10298 10303 10308 10313 10317 10321 10325 10330 10334 10337 10340 10344 10347 10351 10354 10358 10362 10366 10370 10375 10380 10385 10389 10393 10397 10401 10405 10407 10409 10412 10415 10420 10425 10429 10432 10436 10440 10443 10448 10453 10455 10457 10462 10467 10471 10473 10475 10478 10482 10485 10491 10496 10498 10499 10501 10507 10515 10521 10524 10530 10536 10539 10541 10543 10544 10546 10548 10550 10553 10557 10560 10564 10567 10570 10572 10574 10576 10579 10580 10581